Regional Weather Roundup
Issued by NWS

Home | Current Version | Previous Version | Text Only | Print | Product List | Glossary Off
Versions: 1 2 3 4 5 6 7 8 9 10 11 12 13 14 15 16 17 18 19 20 21 22 23 24 25 26 27 28 29 30 31 32 33 34 35 36 37 38 39 40 41 42 43 44 45 46 47 48 49 50

000
ASUS45 KTFX 032219
RWRMT
MONTANA HOURLY WEATHER ROUNDUP
NATIONAL WEATHER SERVICE GREAT FALLS MT
319 PM MST TUE MAR 3 2015

NOTE: "FAIR" INDICATES FEW OR NO CLOUDS BELOW 12000 FEET WITH NO
SIGNIFICANT WEATHER AND/OR OBSTRUCTIONS TO VISIBILITY.

* THESE STATIONS ARE NOT UNDER NWS QUALITY CONTROL. THEY DO NOT
   REPORT WEATHER SUCH AS PRECIPITATION OR FOG.

MTZ001>007-043-032300-
WEST OF THE DIVIDE
CITY           SKY/WX    TMP DP  RH WIND       PRES   REMARKS
KALISPELL      SUNNY     27   3  35 S6        30.07F WCI  20
MISSOULA       PTCLDY    28   3  34 NW13      30.08F WCI  17
BUTTE          SUNNY     18   0  45 N5        29.90F WCI  11
MULLAN PASS    PTSUNNY   19  10  68 VRB3      29.92F
* ANACONDA     SUNNY     16   0  49 N9         N/A   WCI   5
* ESSEX        N/A       23   3  42 SE7G14     N/A   WCI  15
* EUREKA APT   PTCLDY    30   1  29 CALM      30.09F
* HAMILTON APT PTCLDY    27   5  39 NW7       30.03F WCI  19
* LIBBY APT    SUNNY     34   9  35 CALM      30.09F
* LINCOLN      N/A       22  -5  30 S11G20     N/A   WCI  11
* LOOKOUT PASS N/A       24   7  48 VRB4G12    N/A
* POLSON       N/A       27  11  51 SW3G9      N/A
* RONAN APT    SUNNY     27   3  35 N/A        N/A
* SEELEY LAKE  N/A       26   0  32 N3G11      N/A
* THOMP F APT  SUNNY     20   1  43 W7G20      N/A   WCI  11
$$

MTZ008-052>055-032300-
SOUTHWEST MONTANA
CITY           SKY/WX    TMP DP  RH WIND       PRES   REMARKS
BOZEMAN        SUNNY     16   0  49 CALM      30.00F
DILLON         SUNNY     18   1  47 E6        29.91F WCI  10
* W YELLOWSTON SUNNY     23  -6  27 NW4G9      N/A
* THREE FORKS  SUNNY     21   0  40 SE6        N/A   WCI  13
* BOULDER HILL N/A       14  -5  42 N8         N/A   WCI   3
* MONIDA PASS  N/A       15   5  64 W16G21     N/A   WCI  -1
* RAYNOLDS PAS N/A        9   8  96 N6         N/A   WCI  -1
* WHITEHALL    N/A       25  -2  30 SE4G10     N/A
* WISE RIVER   N/A       24   0  35 SW8        N/A   WCI  15
$$

MTZ009>010-012-014-046-048-049-054-032300-
EAST SLOPES AND CENTRAL MONTANA
CITY           SKY/WX    TMP DP  RH WIND       PRES   REMARKS
CUT BANK       SUNNY     18   1  47 NW8       30.02S WCI   8
GREAT FALLS    SUNNY     16   1  51 SW6       30.03F WCI   7
HELENA         PTCLDY    21   1  41 SE7       30.00F WCI  12
MALMSTROM AFB  SUNNY     16   1  51 SW13      30.05F WCI   2
* CONRAD       SUNNY     18   1  47 S10G18     N/A   WCI   6
* DEARBORN     N/A       17   2  51 VRB6       N/A   WCI   8
* EAST GLACIER N/A        5  -2  72 SE4        N/A
* MONARCH      N/A       20  -5  33 N/A        N/A
* PENDROY      N/A       11  -1  58 SW7        N/A
* ROGERS PASS  N/A       15  -2  47 SE10G16    N/A   WCI   3
* SWEET GRASS  N/A       12   0  58 NW11       N/A   WCI  -2
* WHITE SULPH  N/A       19  -1  41 SW4G10     N/A
$$

MTZ011-013-016-021-035-040-045-047-050-051-032300-
NORTH CENTRAL MONTANA
CITY           SKY/WX    TMP DP  RH WIND       PRES   REMARKS
HAVRE          SUNNY     19  -8  29 NW22G32   30.08F WCI   2
LEWISTOWN      SUNNY     12  -2  53 NW12      29.98F WCI  -2
* N BAR RANCH  SUNNY     10  -8  43 NW21G28   29.94F WCI  -9
* CHINOOK      SUNNY     18  -9  29 W20G32    30.07F WCI   2
* FORT BENTON  SUNNY     21   0  40 SW15G20   30.08F WCI   7
* CHESTER      N/A       18  -5  35 NW13G20    N/A   WCI   5
* DENTON       N/A       15  -3  44 NW9G17     N/A   WCI   3
* GEYSER       N/A       12  -1  56 W14        N/A   WCI  -4
* JUDITH GAP   N/A        8  -4  58 N20G27     N/A   WCI -12
* LOMA         N/A       20  -1  39 W11G22     N/A   WCI   8
$$

MTZ017>020-022>027-061-062-032300-
NORTHEAST MONTANA
CITY           SKY/WX    TMP DP  RH WIND       PRES   REMARKS
GLASGOW        SUNNY     18  -8  31 NW22G29   30.01F WCI   1
GLENDIVE       PTSUNNY   12  -8  40 W24G32    30.01F WCI  -8
JORDAN         SUNNY     18  -4  37 NW16G29   30.02F WCI   3
SIDNEY         SUNNY     14  -6  40 W21G29    30.03F WCI  -4
WOLF POINT     CLOUDY    18  -4  37 NW22G29   30.04F WCI   1
* BEAVER HILL  N/A       13  -5  44 W24G37     N/A   WCI  -6
* CIRCLE       N/A       15  -2  47 NW19G25    N/A   WCI  -2
* LINDSAY DVD  N/A       10  -5  50 NW25G38    N/A   WCI -11
* NAVAJO       N/A        6  -6  57 NW22G32    N/A   WCI -15
* PLENTYWOOD A SUNNY      3  -2  79 NW18      29.97F VSB 2 1/2 WCI -17
* POPLAR APT   SUNNY     12  -4  48 W18G26    30.03F WCI  -5
* SACO         N/A       18 -10  28 NW22G29    N/A   WCI   1
$$

MTZ028>042-056>058-032300-
SOUTHCENTRAL AND SOUTHEAST MONTANA
CITY           SKY/WX    TMP DP  RH WIND       PRES   REMARKS
BAKER          PTCLDY    14  -6  40 NW24G37   29.97S WCI  -5
BILLINGS       SUNNY     19  -4  36 NW20      30.00F WCI   3
LIVINGSTON     SUNNY     18   1  47 NW9       29.94F WCI   7
MILES CITY     CLOUDY    19  -4  36 NW16G23   30.04F WCI   4
* BIG TIMBER A SUNNY     18   0  45 W18G24    29.93F WCI   2
* FORSYTH APT  SUNNY     18  -2  41 W18G24    30.04F WCI   2
* LAUREL APT   SUNNY     19  -6  32 W11G16     N/A   WCI   7
* ROUNDUP APT  SUNNY     19 -11  25 NW14G26    N/A   WCI   5
* ALZADA       N/A       13   0  56 W16        N/A   WCI  -3
* HYSHAM       N/A       16  -5  39 W6G27      N/A   WCI   7
* REED POINT   N/A       20   2  45 W8         N/A   WCI  10
* ROSCOE HILL  N/A       16 -10  30 E2         N/A
$$

REGIONAL REPORTS...DAKOTAS
CITY           SKY/WX    TMP DP  RH WIND       PRES   REMARKS
WILLISTON      PTSUNNY    9  -4  55 NW24G31   30.02F WCI -12
DICKINSON      PTSUNNY   16  -4  40 NW25G33   29.93S WCI  -3
BEACH          CLOUDY    14  -2  49 NW25G32   29.97F WCI  -5
CROSBY         SUNNY      5  -6  60 NW28      30.00F WCI -18
TIOGA          PTCLDY     3  -4  72 NW29G36   29.99F WCI -21
WATFORD CITY   PTCLDY    10  -4  53 NW17G29   29.97F WCI  -8
BISMARCK       CLOUDY    10  -2  58 NW17G28   30.01S WCI  -8
GRAND FORKS    CLOUDY     9  -2  61 NW21G28   29.91R WCI -11
FARGO          LGT SNOW  12  -2  53 NW26G32   29.93R WCI  -8
BUFFALO SD     PTCLDY    16  -2  45 W25       29.89S WCI  -3
RAPID CITY     CLOUDY    16   1  51 N25G30    29.94F WCI  -3
$$

REGIONAL REPORTS...WYOMING/IDAHO/WASHINGTON
CITY           SKY/WX    TMP DP  RH WIND       PRES   REMARKS
GILLETTE       PTSUNNY   12   1  61 NW12G21   29.92F WCI  -2
SHERIDAN       SUNNY     10   0  64 NW12      29.99S WCI  -5
CODY           SUNNY     12   0  58 CALM      29.91S
YELLOWSTONE LA SUNNY     16  -8  33 N/A       29.74R
SALMON         SUNNY     30   5  34 CALM      29.94F
MULLAN PASS    PTSUNNY   19  10  68 VRB3      29.92S
SAND POINT     SUNNY     34  14  44 E10       30.11F WCI  26
SPOKANE        SUNNY     36  12  37 VRB6      30.12F WCI  31
$$

REGIONAL REPORTS...ALBERTA
CITY           SKY/WX    TMP DP  RH WIND       PRES   REMARKS
CALGARY        N/A       16  -8  33 N14G20    30.04F WCI   2
LETHBRIDGE     SUNNY     18   0  45 W17       30.09F WCI   3
MEDICINE HAT   PTCLDY    18  -4  37 NW16G31   30.10F WCI   3
EDMONTON       N/A       14  -4  44 NW12      30.12F
WATERTON GATE  N/A       10   0  64 NE8        N/A   WCI  -2
CARDSTON       N/A       16   3  56 SE2        N/A
MILK RIVER     N/A       14   1  56 W10        N/A   WCI   1
$$

REGIONAL REPORTS...SASKATCHEWAN
CITY           SKY/WX    TMP DP  RH WIND       PRES   REMARKS
SWIFT CURRENT  PTSUNNY    7  -4  60 NW36G46   29.92F WCI -18
MOOSE JAW      LGT SNOW   5  -2  72 NW26G32   29.99F VSB 3/4  WCI -18
REGINA         LGT SNOW   1  -4  79 NW18      29.95F VSB 2 1/2 WCI -20
VAL MARIE      N/A       12  -4  48 NW25G33    N/A   WCI  -8
ASSINIBOIA     N/A        5  -4  66 NW25G33    N/A   WCI -17
CORONACH       N/A        9  -4  55 NW23G31    N/A   WCI -11

$$



USA.gov is the U.S. government's official web portal to all federal, state and local government web resources and services.